Overview Statistics Trail Chart Weather Telemetry Raw packets
 

This is the latest recevied weather packets stored in our database for station/object DG1ROH. If no packets are shown the sender has not sent any weather packets the latest 10 day(s).

<< 189 190 191 192 193 194 195 >>
Time Temp. Humidity Pressure Rain* Wind** Luminosity Snow
1777202965 13.33° C 33% 1024.3 hPa 0 mm - 724 W/m² -
1777202846 13.33° C 32% 1024.3 hPa 0 mm - 638 W/m² -
1777202725 13.89° C 34% 1024.3 hPa 0 mm - 726 W/m² -
1777202604 13.33° C 36% 1024.3 hPa 0 mm - 726 W/m² -
1777202479 13.33° C 34% 1024.3 hPa 0 mm - 726 W/m² -
1777202359 13.33° C 35% 1024.2 hPa 0 mm - 728 W/m² -
1777202239 13.33° C 37% 1024.3 hPa 0 mm - 726 W/m² -
1777202119 13.33° C 34% 1024.4 hPa 0 mm - 728 W/m² -
1777201999 13.33° C 33% 1024.4 hPa 0 mm - 728 W/m² -
1777201879 13.89° C 37% 1024.4 hPa 0 mm - 728 W/m² -
1777201759 13.33° C 35% 1024.4 hPa 0 mm - 729 W/m² -
1777201639 13.33° C 35% 1024.3 hPa 0 mm - 729 W/m² -
1777201519 13.33° C 35% 1024.3 hPa 0 mm - 733 W/m² -
1777201399 13.33° C 34% 1024.3 hPa 0 mm - 728 W/m² -
1777201279 13.33° C 32% 1024.3 hPa 0 mm - 729 W/m² -
1777201156 13.33° C 33% 1024.3 hPa 0 mm - 729 W/m² -
1777201035 13.33° C 34% 1024.4 hPa 0 mm - 733 W/m² -
1777200913 13.33° C 34% 1024.3 hPa 0 mm - 733 W/m² -
1777200793 13.89° C 33% 1024.3 hPa 0 mm - 728 W/m² -
1777200673 13.33° C 34% 1024.4 hPa 0 mm - 729 W/m² -
1777200553 13.33° C 37% 1024.3 hPa 0 mm - 726 W/m² -
1777200433 13.33° C 37% 1024.4 hPa 0 mm - 726 W/m² -
1777200313 13.33° C 38% 1024.3 hPa 0 mm - 724 W/m² -
1777200193 12.78° C 36% 1024.4 hPa 0 mm - 724 W/m² -
1777200074 12.78° C 38% 1024.4 hPa 0 mm - 728 W/m² -

* Rain latest hour (hover to see other rain measurements)
** Current wind speed in m/s (hover to see current wind gust speed)